EW0036 Weather Reports


time (UTC)temp
F
wind
direction
speed
knots
gust
knots
rain 1hr
in
rain 24hr
in
rain mn
in
humidity
%
barometer
mb
20260503225716 53 236 0.9 0.9 0.00 0.01 0.00 65 1013.9
20260503224707 54 249 0.0 1.7 0.00 0.01 0.00 64 1014.2
20260503223657 54 150 0.0 1.7 0.00 0.01 0.00 64 1014.2
20260503222656 54 185 0.0 1.7 0.00 0.01 0.00 64 1014.2
20260503221654 54 245 0.0 0.9 0.00 0.01 0.00 63 1014.2
20260503220653 54 231 0.0 0.9 0.00 0.01 0.00 63 1014.2
20260503215651 55 188 0.0 1.7 0.00 0.01 0.00 63 1014.2
20260503214650 55 188 0.0 1.7 0.00 0.01 0.00 62 1014.2
20260503213649 55 166 0.0 0.9 0.00 0.01 0.00 62 1014.2
20260503212648 56 249 0.0 0.9 0.00 0.01 0.00 62 1014.2
20260503211647 56 232 0.0 0.9 0.00 0.01 0.00 62 1014.2
20260503210646 56 251 0.9 3.5 0.00 0.01 0.00 62 1014.2
20260503205645 57 191 0.0 3.5 0.00 0.01 0.01 61 1014.2
20260503204639 57 180 0.0 2.6 0.00 0.01 0.01 61 1014.2
20260503203638 57 204 0.9 2.6 0.00 0.01 0.01 61 1014.2
20260503202636 57 180 0.9 1.7 0.00 0.01 0.01 61 1014.2
20260503201532 57 179 0.0 0.9 0.00 0.01 0.01 62 1014.2
20260503200531 58 139 0.9 1.7 0.00 0.01 0.01 61 1014.2
20260503195530 58 225 0.0 2.6 0.00 0.01 0.01 61 1014.2
20260503194457 58 215 0.9 1.7 0.00 0.01 0.01 60 1014.2
20260503193425 58 216 0.0 0.9 0.00 0.01 0.01 60 1014.2
20260503192425 58 200 0.0 0.9 0.00 0.01 0.01 60 1014.2
20260503191424 59 200 0.0 0.9 0.00 0.01 0.01 59 1014.2
20260503190423 59 199 0.0 0.9 0.00 0.01 0.01 58 1014.2
20260503185422 60 198 0.0 0.9 0.00 0.01 0.01 57 1014.2
20260503184421 60 183 0.0 0.9 0.00 0.01 0.01 57 1013.9
20260503183421 61 182 0.0 0.9 0.00 0.01 0.01 55 1013.9
20260503182420 62 233 0.0 0.9 0.00 0.01 0.01 55 1013.9
20260503181419 62 195 0.0 1.7 0.00 0.01 0.01 54 1013.9
20260503180418 63 198 0.0 1.7 0.00 0.01 0.01 52 1013.9
20260503175417 64 172 0.0 2.6 0.00 0.01 0.01 51 1013.9
20260503174345 64 158 0.0 2.6 0.00 0.01 0.01 51 1013.9
20260503173344 65 163 0.0 0.9 0.00 0.01 0.01 50 1013.5
20260503172343 65 212 0.9 2.6 0.00 0.01 0.01 49 1013.5
20260503171342 66 264 0.0 2.6 0.00 0.01 0.01 48 1013.5
20260503170341 67 208 0.0 0.9 0.00 0.01 0.01 48 1013.5
20260503150122 77 74 0.0 1.7 0.00 0.01 0.01 35 1013.5
20260503130952 77 314 1.7 4.3 0.00 0.01 0.01 35 1014.9
20260503081547 67 239 1.7 4.3 0.00 0.01 0.01 41 1018.6
20260503080546 67 116 0.9 4.3 0.00 0.01 0.01 41 1018.6
20260503072542 64 175 1.7 6.1 0.00 0.01 0.01 43 1019.0
20260503071510 64 127 1.7 8.7 0.00 0.01 0.01 43 1019.0
20260503070509 63 136 0.9 8.7 0.00 0.01 0.01 45 1019.0
20260503054430 53 181 0.9 2.6 0.00 0.01 0.01 67 1019.6
20260503053429 50 120 0.9 2.6 0.00 0.01 0.01 71 1019.6
20260503052428 49 207 0.9 1.7 0.00 0.01 0.01 72 1019.6
20260503051358 48 127 0.0 1.7 0.00 0.01 0.01 75 1019.6
20260503050356 47 185 0.9 1.7 0.00 0.01 0.01 79 1020.0
20260503045324 47 124 0.9 0.9 0.00 0.01 0.01 81 1020.0
20260503044322 46 238 0.0 0.9 0.00 0.01 0.01 79 1020.0
20260503043218 46 202 0.0 0.0 0.00 0.01 0.01 81 1020.3
20260503042146 45 201 0.0 0.9 0.00 0.01 0.01 80 1020.3
20260503041145 45 211 0.0 0.9 0.00 0.01 0.01 78 1020.0
20260503040144 44 211 0.9 0.9 0.01 0.01 0.01 78 1020.0
20260503035143 44 167 0.9 0.9 0.01 0.01 0.01 81 1020.0
20260503034142 44 219 0.9 1.7 0.01 0.01 0.01 82 1020.0
20260503033141 44 230 0.9 0.9 0.01 0.01 0.01 81 1020.0
20260503032140 45 156 0.0 1.7 0.01 0.01 0.01 79 1020.0
20260503031139 46 203 0.9 1.7 0.01 0.01 0.01 75 1020.0
20260503030138 48 205 0.0 1.7 0.00 0.00 0.00 68 1020.0
20260503025137 49 163 0.0 1.7 0.00 0.00 0.00 59 1020.0
20260503024136 50 94 0.0 1.7 0.00 0.00 0.00 51 1020.3
20260503023134 50 29 0.0 1.7 0.00 0.00 0.00 50 1020.0
20260503022133 50 283 0.0 1.7 0.00 0.00 0.00 49 1020.0
20260503021132 50 179 0.0 1.7 0.00 0.00 0.00 49 1020.0
20260503020131 49 139 0.9 0.9 0.00 0.00 0.00 49 1019.6
20260503015130 49 225 0.0 1.7 0.00 0.00 0.00 49 1020.0
20260503014129 49 195 0.9 1.7 0.00 0.00 0.00 50 1020.0
20260503013057 49 155 0.0 0.9 0.00 0.00 0.00 49 1020.3
20260503011953 49 155 0.0 0.9 0.00 0.00 0.00 47 1020.3
20260503010953 49 154 0.9 2.6 0.00 0.00 0.00 46 1020.0
20260503005952 49 207 0.9 2.6 0.00 0.00 0.00 47 1020.3
20260503004951 49 210 0.9 0.9 0.00 0.00 0.00 46 1020.3
20260503003949 49 198 0.9 0.9 0.00 0.00 0.00 47 1020.3
20260503002917 49 158 0.0 0.9 0.00 0.00 0.00 47 1020.3
20260503001916 49 57 0.9 0.9 0.00 0.00 0.00 46 1020.3
20260503000915 49 153 0.0 1.7 0.00 0.00 0.00 46 1020.7
20260502235914 49 225 0.9 1.7 0.00 0.00 0.00 46 1020.7
20260502234913 49 240 0.0 1.7 0.00 0.00 0.00 45 1020.7
20260502233841 49 211 0.9 2.6 0.00 0.00 0.00 44 1021.0
20260502232809 49 254 0.9 2.6 0.00 0.00 0.00 44 1020.7
20260502231737 49 140 0.9 1.7 0.00 0.00 0.00 45 1020.7
20260502230736 49 162 0.9 2.6 0.00 0.00 0.00 45 1020.7